#timestamp,LO_Frequency,Hit,StdDev 
1599378455.5,286046943.8,P
1599378475.4,286046945.0,P
1599378495.2,286046943.3,P
1599378515.1,286046943.0,Y
1599378516.0,286046943.0,P
1599378535.8,286046997.9,N
1599378555.6,286046996.3,N
1599378575.5,286046995.9,N
1599378595.3,286046996.2,N
1599378615.1,286046993.7,N
1599378635.9,286046993.7,N
1599378655.7,286046994.0,N
1599378675.6,286046993.6,N
1599378695.4,286046994.8,N
1599378715.2,286046994.7,N
1599378735.1,286046994.1,N
1599378736.0,286046994.1,N
1599378755.8,286046994.7,N
1599378775.6,286046992.6,N
1599378795.5,286046990.3,N
1599378815.3,286046990.6,N
1599378835.2,286046990.6,N
1599378855.9,286046991.1,N
1599378875.7,286046989.8,N
1599378895.6,286046989.1,N
1599378915.4,286046987.2,N
1599378935.3,286046987.6,N
1599378955.1,286046988.3,N
1599378956.0,286046988.3,N
1599378975.8,286046985.9,N
1599378995.7,286046985.3,N
1599379015.5,286046984.2,N
1599379035.4,286046984.4,N
1599379055.2,286046984.1,N
1599379075.0,286046985.0,N
1599379075.9,286046985.0,Y
1599379095.8,286046993.1,P
1599379115.6,286046990.4,P
1599379135.4,286046990.3,P
1599379155.3,286046988.5,Y
1599379175.1,286046999.6,P
1599379195.9,286046997.0,N
